Regional Weather Roundup
Issued by NWS

Home | Current Version | Previous Version | Graphics & Text | Print | Product List | Glossary On
Versions: 1 2 3 4 5 6 7 8 9 10 11 12 13 14 15 16 17 18 19 20 21 22 23 24 25 26 27 28 29 30 31 32 33 34 35 36 37 38 39 40 41 42 43 44 45 46 47 48 49 50
000
ASUS43 KDTX 242210
RWRMI
MICHIGAN HOURLY REGIONAL WEATHER ROUNDUP
NATIONAL WEATHER SERVICE DETROIT/PONTIAC MI
600 PM EDT SUN JUL 24 2016

NOTE: "FAIR" INDICATES FEW OR NO CLOUDS BELOW 12,000 FEET WITH NO
SIGNIFICANT WEATHER AND/OR OBSTRUCTION TO VISIBILITY.

MIZ047>049-052>055-059>063-066>070-074>076-081>083-242300-
SOUTHEAST LOWER MICHIGAN

CITY           SKY/WX    TMP DP  RH WIND       PRES   REMARKS
ADRIAN         CLOUDY    85  75  72 SW15      29.92F HX  93
ALMA           CLOUDY    87  77  74 SW13      29.86F HX  98
ANN ARBOR      PTSUNNY   84  73  69 S10       29.91S HX  90
BAD AXE        MOSUNNY   81  69  65 S9        29.89S
CARO           PTSUNNY   82  72  70 S7        29.87F
DETROIT CITY   SUNNY     84  72  67 W6        29.92S
DETROIT        PTSUNNY   86  71  60 S12       29.92S HX  91
FLINT          CLOUDY    86  73  65 S9        29.89F HX  93
GROSSE ILE     MOSUNNY   80  73  78 S8        29.92R
HOWELL         PTSUNNY   84  74  73 SW6       29.91S HX  91

CITY           SKY/WX    TMP DP  RH WIND       PRES   REMARKS
JACKSON        CLOUDY    85  77  77 SW14      29.91S HX  95
LAMBERTVILLE   CLOUDY    84  72  67 SW6       29.93S
LANSING        CLOUDY    87  73  62 SW18      29.89S HX  94
LAPEER         FAIR      82  70  66 S8        29.91F
MASON          MOSUNNY   84  73  70 SW10      29.90S HX  90
MONROE         CLOUDY    81  74  80 SE5       29.91S
MT. CLEMENS    PTSUNNY   83  72  67 SW5       29.90F
PONTIAC        CLOUDY    83  72  69 SW9       29.92R
PORT HOPE        N/A     82  71  69 S7        29.86R
PORT HURON     MOSUNNY   81  72  74 S7        29.93R
TRI CITIES     MOSUNNY   83  74  74 S10       29.86F
MIDLAND        FAIR      83  71  68 S9        29.85S
TROY           CLOUDY    84  71  64 SW6       29.94S
SAGINAW HB     SUNNY     84  72  65 S13       29.86S
$$
MIZ043>046-050>051-056>058-064>065-071>073-077>080-242300-
SOUTHWEST LOWER MICHIGAN

CITY           SKY/WX    TMP DP  RH WIND       PRES   REMARKS
BATTLE CREEK   CLOUDY    84  78  82 SW16      29.91S HX  95
BENTON HARBOR  CLOUDY    90  76  63 S13G20    29.88R HX 101
BIG RAPIDS     CLOUDY    83  78  85 SW6       29.85S HX  94
COLDWATER      CLOUDY    85  76  74 SW8       29.93R HX  95
FREMONT        PTSUNNY   84  80  87 SW18G24   29.84S HX  97
HOLLAND        CLOUDY    88  76  67 SW17G28   29.86S HX  99
GRAND RAPIDS   PTSUNNY   87  76  69 SW17G23   29.87S HX  97
IONIA          FAIR      86  73  64 SW14G23   29.86S HX  93
KALAMAZOO      CLOUDY    89  75  63 S16       29.89F HX  99
LUDINGTON      CLOUDY    82  76  81 SW23G29   29.80F HX  90
MARSHALL       CLOUDY    86  77  73 S9        29.91S HX  97
MOUNT PLEASANT PTSUNNY   87  74  67 SW8       29.85R HX  95
MUSKEGON       CLOUDY    84  76  76 S20G29    29.84S HX  93
SOUTH HAVEN    CLOUDY    90  79  70 SW10      29.87S HX 105
$$
MIZ016>042-242300-
NORTHERN LOWER MICHIGAN

CITY           SKY/WX    TMP DP  RH WIND       PRES   REMARKS
ALPENA         CLOUDY    85  69  58 S7        29.82S
BEAVER ISLAND  CLOUDY    71  69  92 SW10      29.79F
BELLAIRE       CLOUDY    81  72  73 S3        29.80S
CADILLAC       CLOUDY    79  74  82 SW9       29.85S
CHARLEVOIX     CLOUDY    78  72  80 SW7       29.82S HAZE
FRANKFORT      CLOUDY    76  71  83 S12G20    29.80F
GAYLORD        CLOUDY    78  69  73 SW7       29.85S
GRAYLING       CLOUDY    79  72  79 S5        29.85F
HARBOR SPRINGS CLOUDY    76  71  85 CALM      29.81R
HOUGHTON LAKE  CLOUDY    81  72  74 SW7       29.86S
MANISTEE       CLOUDY    82  76  81 SW12      29.80F
OSCODA         PTSUNNY   82  70  68 S13       29.84S
PELLSTON       CLOUDY    79  70  74 SW5       29.80S
ROGERS CITY    CLOUDY    74  69  85 N3        29.82S
TRAVERSE CITY  CLOUDY    83  73  72 SW7       29.78S
$$
MIZ007>008-015-242300-
EASTERN UPPER MICHIGAN

CITY           SKY/WX    TMP DP  RH WIND       PRES   REMARKS
KINROSS        LGT RAIN  72  71  97 SW9       29.80S FOG
MACKINAC ISLAN CLOUDY    72  72 100 W7        29.80S
NEWBERRY       CLOUDY    72  71  97 SW6       29.77F FOG
S. S. MARIE    CLOUDY    74  71  91 SW10      29.79S
MUNISING         N/A     72  69  90 NE9       29.74R
$$
MIZ004>006-011>014-085-242300-
CENTRAL UPPER MICHIGAN

CITY           SKY/WX    TMP DP  RH WIND       PRES   REMARKS
MANISTIQUE     CLOUDY    70  69  97 S12       29.76F
ESCANABA         N/A    N/A N/A N/A MISG        N/A
MENOMINEE      MOSUNNY   84  76  76 W6        29.77S HX  93
SAWYER-GWINN   MOSUNNY   86  68  54 W13G18    29.76S
$$
MIZ001>003-009>011-084-242300-
WESTERN UPPER MICHIGAN

CITY           SKY/WX    TMP DP  RH WIND       PRES   REMARKS
IRON MOUNTAIN  MOSUNNY   85  64  49 W12G18    29.77S
HOUGHTON       SUNNY     80  62  54 W23G32    29.76R
COPPER HARBOR    N/A     81  65  58 NW9G21    29.72R
IRONWOOD       MOSUNNY   79  64  61 NW16      29.79S
$$

ABBREVIATIONS USED IN REMARKS
   TC - TEMPERATURE IN CELSIUS
  WCI - WIND CHILL INDEX
   HX - HEAT INDEX
  VSB - VISIBILITY





USA.gov is the U.S. government's official web portal to all federal, state and local government web resources and services.